Hourly Data Report for March 10, 2012

BAGOTVILLE A
QUEBEC

48°20'00.000" N
71°00'00.000" W
159.10 m
7060400
71727
YBG

Download Data

Hourly Data (March 2012)
Hourly Data Report for March 10, 2012
TIME
LST
Temp Definition
°C
Dew Point Definition
°C
Rel Hum Definition
%
Precip. Amount Definition
mm

Wind Dir Definition
10's deg

Wind Spd Definition
km/h
Visibility Definition
km
Stn Press Definition
kPa
Hmdx Definition


Wind Chill Definition


Weather Definition


00:00 -10.7 -15.6 67   28 17 24.1 100.47   -18 Mainly Clear
01:00 -12.3 -16.7 70   28 17 24.1 100.58   -20 Mainly Clear
02:00 -12.1 -19.4 55   28 13 24.1 100.66   -19 Mainly Clear
03:00 -13.9 -21.6 52   28 13 24.1 100.75   -21 Mainly Clear
04:00 -14.9 -21.6 57   28 11 24.1 100.85   -21 Mainly Clear
05:00 -15.2 -21.3 60   28 15 24.1 100.96   -23 Mainly Clear
06:00 -16.0 -20.3 69   25 11 24.1 101.09   -23 Clear
07:00 -15.8 -20.1 69   27 15 40.2 101.19   -24 Mainly Clear
08:00 -14.7 -19.3 68   29 22 40.2 101.32   -24 Mainly Clear
09:00 -14.0 -18.4 69   30 15 40.2 101.33   -22 Mainly Clear
10:00 -12.8 -17.4 68   28 17 40.2 101.34   -21 Mainly Clear
11:00 -12.1 -18.2 60   27 13 40.2 101.37   -19 Mainly Clear
12:00 -10.6 -16.0 64   29 13 40.2 101.35   -17 Mainly Clear
13:00 -10.4 -16.3 62   30 15 40.2 101.26   -17 Mainly Clear
14:00 -10.1 -17.0 57   36 4 40.2 101.18   -12 Mainly Clear
15:00 -8.8 -15.0 61   5 4 40.2 101.14   -11 Mainly Clear
16:00 -9.1 -19.0 44   7 6 40.2 101.07   -12 Mainly Clear
17:00 -9.5 -15.5 62   9 7 40.2 101.09   -13 Mainly Clear
18:00 -10.0 -18.0 52   13 4 40.2 101.05   -12 Mainly Clear
19:00 -12.1 -17.0 67   16 6 24.1 101.01   -16 Mainly Clear
20:00 -11.8 -16.1 70   12 7 24.1 100.96   -16 Mainly Clear
21:00 -12.9 -16.9 72   12 11 24.1 100.92   -19 Mainly Clear
22:00 -13.0 -16.0 78   13 9 24.1 100.90   -18 Mainly Clear
23:00 -12.7 -15.2 82   10 17 24.1 100.83   -21 Mostly Cloudy

Notes on Data Quality.

Legend

  • E = Estimated
  • M = Missing
  • NA = Not Available*
  • [empty] = Indicates an unobserved value
Date modified: